Location: Asheville, NC
(35.6000°N, 82.5500°W)
Time: 01:47:12
(UTC-05:00)

Vanguard 2 Rocket - Pass Details

Date: 15 February 2018
Orbit: 555 x 3327 km, 32.9° (Epoch: 21 February)

Event Time Altitude Azimuth Distance (km) Brightness Sun altitude
Exits shadow 02:58:21 74° 117° (ESE) 3,409 9.4 -52.1°
Drops below altitude 10° 03:15:21 10° 94° (E) 5,778 11.4 -49.0°
Sets 03:19:16 0° 94° (E) 6,548 11.8 -48.3°
